• In Netherlands
  • List of Countries
  • For 7 days
  • Water Temperature
  • Satellite Maps
  • Weather Map
  • Weather Widgets
  • user-avatar
    Login

    Hourly Weather Buenos Aires

    Today, 29 June, Thursday

    Time Temperature Precipitation Wind Pressure Humidity
    00:00 +8°C° 0 mm 0 mps 765 mmHg 94%
    01:00 +7°C° 0 mm 0 mps 765 mmHg 94%
    02:00 +7°C° 0 mm 0 mps 765 mmHg 94%
    03:00 +7°C° 0 mm 0 mps 764 mmHg 95%
    04:00 +8°C° 0 mm 1 mps 764 mmHg 95%
    05:00 +8°C° 0 mm 1 mps 764 mmHg 95%
    06:00 +9°C° 0 mm 1 mps 764 mmHg 94%
    07:00 +9°C° 0 mm 1 mps 764 mmHg 94%
    08:00 +9°C° 0 mm 2 mps 764 mmHg 94%
    09:00 +12°C° 0 mm 2 mps 764 mmHg 86%
    10:00 +13°C° 0 mm 3 mps 764 mmHg 79%
    11:00 +16°C° 0 mm 3 mps 764 mmHg 71%
    12:00 +16°C° 0 mm 3 mps 764 mmHg 68%
    13:00 +17°C° 0 mm 3 mps 763 mmHg 66%
    14:00 +17°C° 0 mm 3 mps 763 mmHg 63%
    15:00 +16°C° 0 mm 3 mps 763 mmHg 70%
    16:00 +13°C° 0 mm 3 mps 762 mmHg 77%
    17:00 +13°C° 0 mm 2 mps 762 mmHg 85%
    18:00 +11°C° 0 mm 3 mps 762 mmHg 85%
    19:00 +11°C° 0 mm 3 mps 763 mmHg 86%
    20:00 +10°C° 0 mm 3 mps 763 mmHg 87%
    21:00 +10°C° 0 mm 3 mps 763 mmHg 87%
    22:00 +10°C° 0 mm 4 mps 763 mmHg 87%
    23:00 +8°C° 0 mm 4 mps 764 mmHg 87%

    Tomorrow, 30 June, Friday

    Time Temperature Precipitation Wind Pressure Humidity
    00:00 +8°C° 0 mm 4 mps 764 mmHg 88%
    01:00 +9°C° 0 mm 3 mps 764 mmHg 89%
    02:00 +9°C° 0 mm 3 mps 764 mmHg 90%
    03:00 +8°C° 0 mm 3 mps 764 mmHg 91%
    04:00 +8°C° 0 mm 3 mps 764 mmHg 91%
    05:00 +8°C° 0 mm 3 mps 764 mmHg 92%
    06:00 +8°C° 0 mm 3 mps 764 mmHg 90%
    07:00 +9°C° 0 mm 3 mps 765 mmHg 89%
    08:00 +9°C° 0 mm 3 mps 766 mmHg 88%
    09:00 +10°C° 0 mm 3 mps 766 mmHg 81%
    10:00 +11°C° 0 mm 3 mps 767 mmHg 74%
    11:00 +13°C° 0 mm 3 mps 767 mmHg 67%
    12:00 +15°C° 0 mm 2 mps 767 mmHg 62%
    13:00 +15°C° 0 mm 2 mps 766 mmHg 57%
    14:00 +16°C° 0 mm 1 mps 766 mmHg 53%
    15:00 +14°C° 0 mm 2 mps 766 mmHg 59%
    16:00 +13°C° 0 mm 2 mps 767 mmHg 65%
    17:00 +10°C° 0 mm 2 mps 767 mmHg 71%
    18:00 +10°C° 0 mm 3 mps 767 mmHg 71%
    19:00 +10°C° 0 mm 3 mps 768 mmHg 70%
    20:00 +9°C° 0 mm 3 mps 768 mmHg 70%
    21:00 +9°C° 0 mm 3 mps 768 mmHg 72%
    22:00 +8°C° 0 mm 2 mps 769 mmHg 75%
    23:00 +7°C° 0 mm 2 mps 769 mmHg 78%

    Day after tomorrow, 1 July, Saturday

    Time Temperature Precipitation Wind Pressure Humidity
    00:00 +7°C° 0 mm 2 mps 769 mmHg 79%
    01:00 +7°C° 0 mm 2 mps 769 mmHg 81%
    02:00 +6°C° 0 mm 2 mps 769 mmHg 82%
    03:00 +6°C° 0 mm 2 mps 769 mmHg 83%
    04:00 +6°C° 0 mm 2 mps 769 mmHg 84%
    05:00 +6°C° 0 mm 2 mps 770 mmHg 85%
    06:00 +7°C° 0 mm 2 mps 770 mmHg 84%
    07:00 +7°C° 0 mm 2 mps 770 mmHg 82%
    08:00 +8°C° 0 mm 2 mps 771 mmHg 81%
    09:00 +10°C° 0 mm 3 mps 771 mmHg 73%
    10:00 +11°C° 0 mm 3 mps 771 mmHg 66%
    11:00 +13°C° 0 mm 3 mps 771 mmHg 58%
    12:00 +14°C° 0 mm 3 mps 771 mmHg 57%
    13:00 +14°C° 0 mm 3 mps 770 mmHg 56%
    14:00 +16°C° 0 mm 3 mps 770 mmHg 54%
    15:00 +13°C° 0 mm 3 mps 770 mmHg 60%
    16:00 +12°C° 0 mm 3 mps 770 mmHg 66%
    17:00 +10°C° 0 mm 4 mps 770 mmHg 72%
    18:00 +10°C° 0 mm 4 mps 770 mmHg 74%
    19:00 +8°C° 0 mm 4 mps 771 mmHg 76%
    20:00 +8°C° 0 mm 4 mps 771 mmHg 78%
    21:00 +8°C° 0 mm 4 mps 771 mmHg 79%
    22:00 +8°C° 0 mm 5 mps 771 mmHg 80%
    23:00 +8°C° 0 mm 5 mps 771 mmHg 81%

    2 July, Sunday

    Time Temperature Precipitation Wind Pressure Humidity
    00:00 +8°C° 0 mm 5 mps 771 mmHg 81%
    01:00 +7°C° 0 mm 5 mps 771 mmHg 81%
    02:00 +7°C° 0 mm 5 mps 771 mmHg 80%
    03:00 +7°C° 0 mm 5 mps 771 mmHg 81%
    04:00 +7°C° 0 mm 5 mps 771 mmHg 81%
    05:00 +7°C° 0 mm 5 mps 771 mmHg 81%
    06:00 +7°C° 0 mm 5 mps 772 mmHg 81%
    07:00 +7°C° 0 mm 6 mps 772 mmHg 81%
    08:00 +8°C° 0 mm 6 mps 772 mmHg 81%
    09:00 +9°C° 0 mm 6 mps 772 mmHg 74%
    10:00 +11°C° 0 mm 6 mps 772 mmHg 67%
    11:00 +13°C° 0 mm 6 mps 772 mmHg 61%
    12:00 +14°C° 0 mm 6 mps 772 mmHg 59%
    13:00 +15°C° 0 mm 6 mps 771 mmHg 56%
    14:00 +15°C° 0 mm 6 mps 771 mmHg 54%
    15:00 +14°C° 0 mm 5 mps 771 mmHg 59%
    16:00 +13°C° 0 mm 5 mps 770 mmHg 64%
    17:00 +12°C° 0 mm 5 mps 770 mmHg 69%
    18:00 +10°C° 0 mm 6 mps 770 mmHg 68%
    19:00 +10°C° 0 mm 7 mps 771 mmHg 67%
    20:00 +10°C° 0 mm 7 mps 771 mmHg 66%
    21:00 +10°C° 0 mm 7 mps 770 mmHg 65%
    22:00 +10°C° 0 mm 7 mps 770 mmHg 64%
    23:00 +10°C° 0 mm 8 mps 770 mmHg 63%

    3 July, Monday

    Time Temperature Precipitation Wind Pressure Humidity
    00:00 +10°C° 0 mm 8 mps 770 mmHg 66%
    01:00 +10°C° 0 mm 8 mps 770 mmHg 68%
    02:00 +10°C° 0 mm 8 mps 770 mmHg 71%
    03:00 +9°C° 0 mm 8 mps 769 mmHg 74%
    04:00 +9°C° 0 mm 8 mps 769 mmHg 78%
    05:00 +9°C° 0 mm 8 mps 769 mmHg 81%
    06:00 +9°C° 0 mm 8 mps 769 mmHg 81%
    07:00 +9°C° 0 mm 8 mps 769 mmHg 82%
    08:00 +9°C° 0 mm 8 mps 769 mmHg 82%
    09:00 +11°C° 0 mm 8 mps 768 mmHg 76%
    10:00 +12°C° 0 mm 8 mps 768 mmHg 70%
    11:00 +15°C° 0 mm 8 mps 768 mmHg 63%
    12:00 +16°C° 0 mm 7 mps 767 mmHg 61%
    13:00 +17°C° 0 mm 7 mps 766 mmHg 58%
    14:00 +17°C° 0 mm 6 mps 766 mmHg 56%
    15:00 +16°C° 0 mm 6 mps 765 mmHg 61%
    16:00 +15°C° 0 mm 6 mps 765 mmHg 67%
    17:00 +14°C° 0 mm 6 mps 765 mmHg 72%
    18:00 +14°C° 0 mm 6 mps 765 mmHg 76%
    19:00 +14°C° 0 mm 7 mps 766 mmHg 80%
    20:00 +14°C° 0 mm 7 mps 766 mmHg 84%
    21:00 +14°C° 0 mm 7 mps 766 mmHg 84%
    22:00 +14°C° 0 mm 7 mps 766 mmHg 83%
    23:00 +13°C° 0 mm 8 mps 766 mmHg 83%

    4 July, Tuesday

    Time Temperature Precipitation Wind Pressure Humidity
    00:00 +12°C° 0 mm 8 mps 766 mmHg 82%
    01:00 +12°C° 0 mm 8 mps 766 mmHg 80%
    02:00 +12°C° 0 mm 8 mps 766 mmHg 79%
    03:00 +11°C° 0 mm 7 mps 766 mmHg 80%
    04:00 +11°C° 0 mm 7 mps 766 mmHg 80%
    05:00 +11°C° 0 mm 7 mps 766 mmHg 81%
    06:00 +11°C° 0 mm 7 mps 766 mmHg 82%
    07:00 +11°C° 0 mm 7 mps 766 mmHg 83%
    08:00 +11°C° 0 mm 7 mps 767 mmHg 83%
    09:00 +14°C° 0 mm 7 mps 766 mmHg 77%
    10:00 +16°C° 0 mm 7 mps 766 mmHg 71%
    11:00 +17°C° 0 mm 7 mps 766 mmHg 65%
    12:00 +19°C° 0 mm 6 mps 766 mmHg 63%
    13:00 +20°C° 0 mm 6 mps 766 mmHg 61%
    14:00 +21°C° 0 mm 6 mps 765 mmHg 59%
    15:00 +19°C° 0 mm 5 mps 765 mmHg 65%
    16:00 +17°C° 0 mm 5 mps 765 mmHg 71%
    17:00 +16°C° 0 mm 5 mps 765 mmHg 77%
    18:00 +15°C° 0 mm 5 mps 765 mmHg 79%
    19:00 +15°C° 0 mm 5 mps 766 mmHg 80%
    20:00 +14°C° 0 mm 6 mps 766 mmHg 82%
    21:00 +14°C° 0 mm 6 mps 766 mmHg 82%
    22:00 +14°C° 0 mm 6 mps 766 mmHg 82%
    23:00 +13°C° 0 mm 6 mps 767 mmHg 83%
    Show more